Location: Chmeln�
(49.6483°N, 14.9871°E)
Time: 02:46:55
(UTC+00:00)

Cosmos 2278 Rocket - Pass Details

Date: 18 September 2020
Orbit: 841 x 845 km, 71.0° (Epoch: 24 October)

Event Time Altitude Azimuth Distance (km) Brightness Sun altitude
Exits shadow 21:22:25 28° 19° (NNE) 1,524 3.8 -35.3°
Drops below altitude 10° 21:25:04 10° 26° (NNE) 2,471 5.0 -35.5°
Sets 21:27:32 0° 28° (NNE) 3,410 5.8 -35.7°
